Burley, ID

3:47 AM MDT on March 23, 2017 (GMT -0600)
Burley Municipal

Weather History for KBYI - April, 2013

Change the Weather History Date:

Saturday, April 13, 2013

  Actual Average Record
Temperature  
Mean Temperature 42 °F 45 °F  
Max Temperature 54 °F 58 °F 82 °F (1988)
Min Temperature 29 °F 33 °F 19 °F (1980)
Degree Days  
Heating Degree Days 23 20  
Month to date heating degree days 243 271  
Since 1 July heating degree days 5733 6090  
Cooling Degree Days 0 0  
Month to date cooling degree days 0 0  
Year to date cooling degree days 0 0  
Moisture  
Dew Point 27 °F    
Average Humidity 57    
Maximum Humidity 89    
Minimum Humidity 25    
Precipitation  
Precipitation 0.06 in 0.03 in 0.20 in (2001)
Month to date precipitation 0.64 0.40  
Year to date precipitation 1.59 3.11  
Sea Level Pressure  
Sea Level Pressure 29.63 in    
Wind  
Wind Speed 17 mph (West)    
Max Wind Speed 33 mph    
Max Gust Speed 46 mph    
Visibility 10 miles    
Events Rain    
T = Trace of Precipitation, MM = Missing Value Source: NWS Daily Summary

Daily Weather History Graph

Daily Weather History Graph

Search for Another Location

Airport or City:

Trip Planner

Search our weather history database for the weather conditions in past years. The results will help you decide how hot, cold, wet, or windy it might be!

Date:

Astronomy

Apr. 13, 2013 Rise Set
Actual Time 6:56 AM MDT 8:15 PM MDT
Civil Twilight 6:27 AM MDT 8:44 PM MDT
Nautical Twilight 5:52 AM MDT 9:19 PM MDT
Astronomical Twilight 5:15 AM MDT 9:56 PM MDT
Moon 8:47 AM MDT (4/13) 11:46 PM MDT (4/13)
Length of Visible Light 14h 16m
Length of Day
13h 18m
Waxing Crescent, 11% of the Moon is Illuminated
Apr 13
Waxing Crescent
Apr 18
First Quarter
Apr 25
Full
May 2
Last Quarter
May 9
New

Hourly Weather History & Observations

Time (MDT) Temp. Windchill Dew Point Humidity Pressure Visibility Wind Dir Wind Speed Gust Speed Precip Events Conditions
12:53 AM 50.0 °F - 27.0 °F 41% 29.68 in 10.0 mi SSW 13.8 mph - N/A   Mostly Cloudy
1:53 AM 50.0 °F - 25.0 °F 38% 29.64 in 10.0 mi SSW 15.0 mph - N/A   Mostly Cloudy
2:53 AM 51.1 °F - 24.1 °F 35% 29.59 in 10.0 mi SSW 15.0 mph - N/A   Scattered Clouds
3:53 AM 48.9 °F - 27.0 °F 43% 29.57 in 10.0 mi WSW 10.4 mph - N/A   Mostly Cloudy
4:53 AM 50.0 °F - 27.0 °F 41% 29.55 in 10.0 mi SSW 9.2 mph - N/A   Overcast
5:53 AM 54.0 °F - 28.0 °F 37% 29.53 in 10.0 mi West 16.1 mph 27.6 mph N/A   Overcast
6:53 AM 52.0 °F - 30.9 °F 45% 29.54 in 10.0 mi West 17.3 mph 29.9 mph N/A   Partly Cloudy
7:53 AM 50.0 °F - 33.1 °F 52% 29.57 in 10.0 mi WSW 16.1 mph - N/A   Overcast
8:53 AM 46.0 °F 40.2 °F 37.9 °F 73% 29.60 in 10.0 mi West 12.7 mph 20.7 mph 0.00 in Rain Light Rain
9:53 AM 45.0 °F 38.5 °F 39.9 °F 82% 29.59 in 10.0 mi West 13.8 mph 21.9 mph 0.00 in Rain Light Rain
9:55 AM 44.6 °F 38.4 °F 39.2 °F 81% 29.62 in 10.0 mi West 12.7 mph 21.9 mph 0.01 in Rain Light Rain
10:53 AM 42.1 °F 32.8 °F 39.0 °F 89% 29.62 in 5.0 mi West 21.9 mph 33.4 mph 0.04 in Rain Light Rain
11:08 AM 41.0 °F 30.9 °F 37.4 °F 87% 29.64 in 10.0 mi West 24.2 mph 32.2 mph 0.01 in Rain Light Rain
11:26 AM 41.0 °F 32.5 °F 37.4 °F 87% 29.63 in 9.0 mi West 17.3 mph 32.2 mph 0.01 in Rain Light Rain
11:53 AM 42.1 °F 32.3 °F 37.9 °F 85% 29.60 in 10.0 mi WSW 24.2 mph 33.4 mph 0.02 in Rain Light Rain
12:53 PM 44.1 °F 35.2 °F 39.0 °F 82% 29.60 in 10.0 mi WSW 23.0 mph 34.5 mph 0.00 in Rain Light Rain
12:56 PM 44.6 °F 35.7 °F 39.2 °F 81% 29.63 in 10.0 mi WSW 24.2 mph 34.5 mph 0.00 in Rain Light Rain
1:03 PM 46.4 °F 38.5 °F 41.0 °F 81% 29.63 in 10.0 mi West 21.9 mph 31.1 mph 0.00 in   Overcast
1:53 PM 51.1 °F - 30.0 °F 44% 29.55 in 10.0 mi West 28.8 mph 42.6 mph 0.00 in   Mostly Cloudy
2:53 PM 51.1 °F - 24.1 °F 35% 29.57 in 10.0 mi West 25.3 mph 38.0 mph N/A   Partly Cloudy
3:53 PM 50.0 °F - 24.1 °F 36% 29.58 in 10.0 mi West 26.5 mph 41.4 mph N/A   Clear
4:53 PM 48.0 °F - 19.0 °F 32% 29.60 in 10.0 mi WNW 24.2 mph 42.6 mph N/A   Clear
5:53 PM 46.9 °F - 15.1 °F 28% 29.61 in 10.0 mi West 24.2 mph 39.1 mph N/A   Clear
6:53 PM 44.1 °F 35.9 °F 10.9 °F 26% 29.64 in 10.0 mi West 19.6 mph 43.7 mph N/A   Clear
7:53 PM 41.0 °F 31.9 °F 12.0 °F 31% 29.68 in 10.0 mi WNW 19.6 mph 29.9 mph N/A   Clear
8:53 PM 37.9 °F 29.6 °F 12.0 °F 35% 29.75 in 10.0 mi West 13.8 mph 27.6 mph N/A   Clear
9:53 PM 34.0 °F 25.5 °F 10.0 °F 37% 29.80 in 10.0 mi West 11.5 mph - N/A   Clear
10:53 PM 32.0 °F 24.2 °F 12.0 °F 44% 29.83 in 10.0 mi West 9.2 mph - N/A   Clear
11:53 PM 32.0 °F 23.6 °F 16.0 °F 52% 29.83 in 10.0 mi West 10.4 mph - N/A   Clear